APG769 RPLL-RPVM

Flight info

Callsign APG769
Flight time 0h 56m
Altitude 33000
Route IPATA2R IPATA W25 BATAY BATAY3P
Aircraft A20N/M-SDE2E3FGHIRWXY/LB1

Departure

Time 2026-05-06 12:47
Airport Ninoy Aquino International Airport (RPLL)

Arrival

Time 2026-05-06 13:44
Airport Mactan Cebu International Airport (RPVM)
Time Latitude Longitude Altitude Speed Heading
2026-05-06 12:14 14.50831 121.01271 47 ft 0 kts 331°
2026-05-06 12:34 14.50828 121.01273 44 ft 2 kts 330°
2026-05-06 12:34 14.50814 121.01282 44 ft 2 kts 330°
2026-05-06 12:34 14.50799 121.01290 43 ft 2 kts 330°
2026-05-06 12:35 14.50785 121.01299 46 ft 2 kts 330°
2026-05-06 12:35 14.50771 121.01307 49 ft 2 kts 319°
2026-05-06 12:35 14.50761 121.01321 48 ft 2 kts 272°
2026-05-06 12:35 14.50764 121.01337 50 ft 2 kts 241°
2026-05-06 12:36 14.50772 121.01352 47 ft 2 kts 240°
2026-05-06 12:36 14.50776 121.01358 48 ft 0 kts 241°
2026-05-06 12:38 14.50772 121.01351 49 ft 4 kts 240°
2026-05-06 12:38 14.50729 121.01316 52 ft 9 kts 185°
2026-05-06 12:39 14.50666 121.01308 53 ft 9 kts 214°
2026-05-06 12:39 14.50624 121.01238 53 ft 18 kts 240°
2026-05-06 12:39 14.50541 121.01088 59 ft 27 kts 239°
2026-05-06 12:39 14.50444 121.00915 60 ft 28 kts 240°
2026-05-06 12:40 14.50344 121.00734 64 ft 30 kts 241°
2026-05-06 12:40 14.50240 121.00548 61 ft 30 kts 240°
2026-05-06 12:40 14.50135 121.00359 72 ft 31 kts 240°
2026-05-06 12:40 14.50026 121.00166 68 ft 31 kts 242°
2026-05-06 12:41 14.49922 120.99982 85 ft 18 kts 228°
2026-05-06 12:41 14.49882 120.99969 88 ft 0 kts 169°
2026-05-06 12:44 14.49858 120.99977 84 ft 9 kts 158°
2026-05-06 12:44 14.49797 121.00024 84 ft 11 kts 98°
2026-05-06 12:44 14.49806 121.00049 85 ft 5 kts 53°
2026-05-06 12:45 14.49811 121.00056 84 ft 0 kts 57°
2026-05-06 12:46 14.49812 121.00059 84 ft 3 kts 57°
2026-05-06 12:46 14.49911 121.00238 70 ft 66 kts 60°
2026-05-06 12:46 14.50255 121.00857 66 ft 129 kts 60°
2026-05-06 12:47 14.50780 121.01792 212 ft 162 kts 61°
2026-05-06 12:47 14.51357 121.02790 781 ft 163 kts 62°
2026-05-06 12:47 14.51922 121.03779 1556 ft 157 kts 61°
2026-05-06 12:47 14.52480 121.04757 2150 ft 164 kts 61°
2026-05-06 12:48 14.53090 121.05830 2578 ft 184 kts 60°
2026-05-06 12:48 14.53778 121.07038 2991 ft 208 kts 60°
2026-05-06 12:48 14.54555 121.08399 3530 ft 233 kts 60°
2026-05-06 12:48 14.55419 121.09914 4148 ft 255 kts 60°
2026-05-06 12:49 14.56335 121.11519 4914 ft 268 kts 60°
2026-05-06 12:49 14.57294 121.13199 5546 ft 278 kts 60°
2026-05-06 12:49 14.58267 121.14905 5665 ft 273 kts 60°
2026-05-06 12:49 14.59227 121.16585 5784 ft 271 kts 60°
2026-05-06 12:50 14.60185 121.18272 5907 ft 273 kts 62°
2026-05-06 12:50 14.60701 121.20156 6113 ft 277 kts 88°
2026-05-06 12:50 14.60569 121.22157 6907 ft 279 kts 98°
2026-05-06 12:50 14.60278 121.23437 7662 ft 277 kts 107°
2026-05-06 12:51 14.59424 121.25227 8606 ft 284 kts 127°
2026-05-06 12:51 14.57975 121.26651 9519 ft 290 kts 137°
2026-05-06 12:51 14.55912 121.28449 10461 ft 307 kts 140°
2026-05-06 12:51 14.54713 121.29391 10685 ft 324 kts 142°
2026-05-06 12:52 14.52828 121.30801 11032 ft 344 kts 142°
2026-05-06 12:52 14.50227 121.32733 12055 ft 350 kts 142°
2026-05-06 12:52 14.48252 121.34218 12878 ft 353 kts 142°
2026-05-06 12:52 14.46910 121.35237 13429 ft 356 kts 142°
2026-05-06 12:53 14.44910 121.36765 14147 ft 360 kts 142°
2026-05-06 12:53 14.42919 121.38293 14777 ft 363 kts 142°
2026-05-06 12:53 14.40879 121.39859 15400 ft 367 kts 142°
2026-05-06 12:53 14.38820 121.41439 15999 ft 372 kts 142°
2026-05-06 12:54 14.36728 121.43043 16572 ft 376 kts 142°
2026-05-06 12:54 14.34619 121.44660 17171 ft 380 kts 142°
2026-05-06 12:54 14.32484 121.46297 17733 ft 384 kts 142°
2026-05-06 12:54 14.30321 121.47954 18258 ft 389 kts 142°
2026-05-06 12:55 14.28139 121.49623 18775 ft 391 kts 142°
2026-05-06 12:55 14.25946 121.51304 19280 ft 395 kts 143°
2026-05-06 12:55 14.23731 121.52997 19767 ft 398 kts 143°
2026-05-06 12:55 14.21494 121.54706 20273 ft 401 kts 143°
2026-05-06 12:56 14.19276 121.56400 20751 ft 404 kts 143°
2026-05-06 12:56 14.16974 121.58158 21248 ft 407 kts 143°
2026-05-06 12:56 14.14717 121.59882 21725 ft 411 kts 143°
2026-05-06 12:56 14.12380 121.61666 22204 ft 414 kts 143°
2026-05-06 12:57 14.10054 121.63442 22677 ft 418 kts 143°
2026-05-06 12:57 14.07744 121.65206 23151 ft 421 kts 143°
2026-05-06 12:57 14.05378 121.67012 23583 ft 425 kts 143°
2026-05-06 12:57 14.03000 121.68826 24013 ft 427 kts 143°
2026-05-06 12:58 14.00602 121.70655 24409 ft 429 kts 143°
2026-05-06 12:58 13.98197 121.72489 24804 ft 432 kts 143°
2026-05-06 12:58 13.95775 121.74336 25203 ft 435 kts 143°
2026-05-06 12:58 13.93339 121.76193 25582 ft 437 kts 143°
2026-05-06 12:59 13.90886 121.78061 25973 ft 439 kts 143°
2026-05-06 12:59 13.88421 121.79939 26323 ft 442 kts 143°
2026-05-06 12:59 13.86037 121.81754 26681 ft 444 kts 143°
2026-05-06 12:59 13.83539 121.83646 27035 ft 447 kts 144°
2026-05-06 13:00 13.81034 121.85536 27375 ft 449 kts 144°
2026-05-06 13:00 13.78498 121.87447 27718 ft 451 kts 144°
2026-05-06 13:00 13.75983 121.89343 28048 ft 454 kts 144°
2026-05-06 13:00 13.73433 121.91267 28371 ft 456 kts 144°
2026-05-06 13:01 13.70875 121.93196 28686 ft 459 kts 144°
2026-05-06 13:01 13.68283 121.95151 28991 ft 461 kts 144°
2026-05-06 13:01 13.65691 121.97105 29302 ft 463 kts 144°
2026-05-06 13:01 13.63087 121.99067 29597 ft 465 kts 144°
2026-05-06 13:02 13.60461 122.01046 29895 ft 468 kts 144°
2026-05-06 13:02 13.57824 122.03032 30157 ft 470 kts 144°
2026-05-06 13:02 13.55179 122.05024 30432 ft 472 kts 144°
2026-05-06 13:02 13.52527 122.07021 30707 ft 474 kts 144°
2026-05-06 13:03 13.49861 122.09028 30993 ft 475 kts 144°
2026-05-06 13:03 13.47195 122.11034 31361 ft 475 kts 144°
2026-05-06 13:03 13.44567 122.13011 31748 ft 473 kts 144°
2026-05-06 13:03 13.41909 122.15009 32136 ft 472 kts 145°
2026-05-06 13:04 13.39264 122.16998 32519 ft 471 kts 145°
2026-05-06 13:04 13.36625 122.18982 32746 ft 470 kts 145°
2026-05-06 13:04 13.33992 122.20962 32844 ft 468 kts 145°
2026-05-06 13:05 13.28742 122.24912 32923 ft 468 kts 145°
2026-05-06 13:05 13.23485 122.28854 32923 ft 468 kts 145°
2026-05-06 13:06 13.18224 122.32797 32925 ft 468 kts 145°
2026-05-06 13:06 13.12994 122.36718 32921 ft 468 kts 145°
2026-05-06 13:07 13.07731 122.40660 32922 ft 468 kts 145°
2026-05-06 13:07 13.02461 122.44607 32922 ft 469 kts 145°
2026-05-06 13:08 12.97191 122.48551 32922 ft 469 kts 145°
2026-05-06 13:08 12.91916 122.52497 32926 ft 469 kts 145°
2026-05-06 13:09 12.86636 122.56444 32927 ft 469 kts 145°
2026-05-06 13:09 12.81361 122.60386 32926 ft 469 kts 145°
2026-05-06 13:10 12.76085 122.64323 32926 ft 469 kts 145°
2026-05-06 13:10 12.70811 122.68259 32927 ft 469 kts 145°
2026-05-06 13:11 12.65538 122.72194 32926 ft 469 kts 145°
2026-05-06 13:11 12.60292 122.76106 32928 ft 469 kts 145°
2026-05-06 13:12 12.55023 122.80035 32926 ft 468 kts 145°
2026-05-06 13:12 12.49759 122.83965 32923 ft 468 kts 145°
2026-05-06 13:13 12.44493 122.87891 32917 ft 468 kts 145°
2026-05-06 13:13 12.39223 122.91813 32918 ft 468 kts 145°
2026-05-06 13:14 12.33955 122.95730 32913 ft 468 kts 145°
2026-05-06 13:14 12.28681 122.99642 32913 ft 468 kts 145°
2026-05-06 13:15 12.23437 123.03532 32916 ft 468 kts 145°
2026-05-06 13:15 12.18164 123.07447 32916 ft 468 kts 145°
2026-05-06 13:16 12.12886 123.11364 32917 ft 469 kts 145°
2026-05-06 13:16 12.07604 123.15282 32915 ft 469 kts 145°
2026-05-06 13:17 12.02355 123.19174 32915 ft 469 kts 145°
2026-05-06 13:17 11.97073 123.23090 32915 ft 469 kts 145°
2026-05-06 13:18 11.91784 123.27009 32911 ft 469 kts 146°
2026-05-06 13:18 11.86495 123.30927 32909 ft 469 kts 146°
2026-05-06 13:19 11.81206 123.34843 32913 ft 469 kts 146°
2026-05-06 13:19 11.75918 123.38756 32709 ft 470 kts 146°
2026-05-06 13:19 11.73271 123.40715 32273 ft 470 kts 146°
2026-05-06 13:20 11.70620 123.42675 31793 ft 470 kts 145°
2026-05-06 13:20 11.68004 123.44607 31328 ft 471 kts 145°
2026-05-06 13:20 11.65344 123.46571 30860 ft 473 kts 145°
2026-05-06 13:20 11.62682 123.48537 30408 ft 473 kts 144°
2026-05-06 13:21 11.60017 123.50505 29945 ft 471 kts 144°
2026-05-06 13:21 11.57368 123.52461 29412 ft 466 kts 144°
2026-05-06 13:21 11.54751 123.54392 28890 ft 461 kts 144°
2026-05-06 13:21 11.52167 123.56300 28377 ft 455 kts 144°
2026-05-06 13:22 11.49610 123.58186 27876 ft 451 kts 143°
2026-05-06 13:22 11.47081 123.60051 27376 ft 447 kts 143°
2026-05-06 13:22 11.44568 123.61903 26895 ft 444 kts 143°
2026-05-06 13:22 11.42076 123.63739 26418 ft 440 kts 143°
2026-05-06 13:23 11.39608 123.65557 25951 ft 436 kts 143°
2026-05-06 13:23 11.37156 123.67363 25487 ft 433 kts 142°
2026-05-06 13:23 11.34752 123.69134 25035 ft 430 kts 142°
2026-05-06 13:23 11.32340 123.70912 24594 ft 427 kts 142°
2026-05-06 13:24 11.29942 123.72681 24150 ft 424 kts 142°
2026-05-06 13:24 11.27561 123.74436 23714 ft 421 kts 142°
2026-05-06 13:24 11.25191 123.76181 23253 ft 418 kts 142°
2026-05-06 13:24 11.22845 123.77907 22740 ft 414 kts 142°
2026-05-06 13:25 11.20518 123.79620 22236 ft 411 kts 142°
2026-05-06 13:25 11.18207 123.81320 21743 ft 408 kts 142°
2026-05-06 13:25 11.15764 123.82762 21253 ft 407 kts 156°
2026-05-06 13:25 11.13023 123.83499 20774 ft 409 kts 172°
2026-05-06 13:26 11.10177 123.83453 20310 ft 410 kts 187°
2026-05-06 13:26 11.07444 123.82770 19854 ft 409 kts 194°
2026-05-06 13:26 11.04708 123.81994 19394 ft 407 kts 194°
2026-05-06 13:26 11.01987 123.81218 18946 ft 404 kts 194°
2026-05-06 13:27 10.99282 123.80453 18506 ft 402 kts 194°
2026-05-06 13:27 10.96590 123.79696 18049 ft 400 kts 193°
2026-05-06 13:27 10.93915 123.78947 17544 ft 396 kts 193°
2026-05-06 13:27 10.91271 123.78208 17048 ft 393 kts 193°
2026-05-06 13:28 10.88638 123.77474 16557 ft 390 kts 193°
2026-05-06 13:28 10.86029 123.76746 16079 ft 387 kts 193°
2026-05-06 13:28 10.83440 123.76024 15614 ft 385 kts 193°
2026-05-06 13:28 10.80868 123.75307 15137 ft 382 kts 193°
2026-05-06 13:29 10.78308 123.74594 14679 ft 379 kts 193°
2026-05-06 13:29 10.75801 123.73896 14226 ft 376 kts 193°
2026-05-06 13:29 10.73278 123.73193 13783 ft 375 kts 193°
2026-05-06 13:29 10.70777 123.72497 13306 ft 370 kts 193°
2026-05-06 13:30 10.68306 123.71809 12929 ft 368 kts 193°
2026-05-06 13:30 10.65837 123.71122 12427 ft 367 kts 193°
2026-05-06 13:30 10.63388 123.70439 11946 ft 363 kts 193°
2026-05-06 13:30 10.60960 123.69764 11412 ft 361 kts 193°
2026-05-06 13:31 10.58545 123.69092 10854 ft 359 kts 193°
2026-05-06 13:31 10.56144 123.68423 10373 ft 356 kts 193°
2026-05-06 13:31 10.53794 123.67768 10216 ft 342 kts 193°
2026-05-06 13:31 10.51550 123.67142 10091 ft 328 kts 193°
2026-05-06 13:32 10.49392 123.66540 9942 ft 316 kts 193°
2026-05-06 13:32 10.47320 123.65963 9631 ft 310 kts 193°
2026-05-06 13:32 10.45248 123.65389 9227 ft 307 kts 193°
2026-05-06 13:32 10.43193 123.64819 8832 ft 305 kts 193°
2026-05-06 13:33 10.41151 123.64252 8435 ft 303 kts 193°
2026-05-06 13:33 10.39124 123.63690 8038 ft 301 kts 193°
2026-05-06 13:33 10.37112 123.63132 7652 ft 299 kts 192°
2026-05-06 13:33 10.35079 123.62950 7250 ft 291 kts 168°
2026-05-06 13:34 10.33220 123.63645 6860 ft 282 kts 142°
2026-05-06 13:34 10.31783 123.64956 6490 ft 277 kts 131°
2026-05-06 13:34 10.30470 123.66371 6131 ft 274 kts 129°
2026-05-06 13:34 10.29179 123.67780 5762 ft 271 kts 130°
2026-05-06 13:35 10.27894 123.69146 5404 ft 269 kts 131°
2026-05-06 13:35 10.26589 123.70504 5042 ft 269 kts 132°
2026-05-06 13:35 10.25274 123.71850 4680 ft 267 kts 132°
2026-05-06 13:35 10.23967 123.73178 4398 ft 262 kts 133°
2026-05-06 13:36 10.22704 123.74454 4306 ft 251 kts 132°
2026-05-06 13:36 10.21490 123.75683 4220 ft 241 kts 132°
2026-05-06 13:36 10.20337 123.76851 4118 ft 228 kts 132°
2026-05-06 13:36 10.19243 123.77960 4030 ft 216 kts 132°
2026-05-06 13:37 10.18212 123.79005 3951 ft 202 kts 132°
2026-05-06 13:37 10.17266 123.79960 3874 ft 182 kts 131°
2026-05-06 13:37 10.16405 123.80832 3774 ft 166 kts 131°
2026-05-06 13:37 10.15825 123.81719 3698 ft 140 kts 102°
2026-05-06 13:38 10.15803 123.82643 3489 ft 128 kts 71°
2026-05-06 13:38 10.16059 123.83177 3269 ft 127 kts 51°
2026-05-06 13:38 10.16683 123.83814 2916 ft 127 kts 43°
2026-05-06 13:38 10.17524 123.84647 2557 ft 122 kts 43°
2026-05-06 13:39 10.18142 123.85269 2414 ft 126 kts 44°
2026-05-06 13:39 10.18765 123.85896 2400 ft 126 kts 44°
2026-05-06 13:39 10.19389 123.86524 2402 ft 128 kts 44°
2026-05-06 13:39 10.20022 123.87161 2405 ft 126 kts 43°
2026-05-06 13:40 10.20641 123.87785 2368 ft 127 kts 43°
2026-05-06 13:40 10.21277 123.88422 2204 ft 129 kts 44°
2026-05-06 13:40 10.21907 123.89056 2036 ft 127 kts 43°
2026-05-06 13:40 10.22326 123.89478 1938 ft 129 kts 43°
2026-05-06 13:41 10.22959 123.90113 1754 ft 128 kts 44°
2026-05-06 13:41 10.23593 123.90749 1603 ft 126 kts 43°
2026-05-06 13:41 10.24218 123.91375 1449 ft 126 kts 44°
2026-05-06 13:41 10.24844 123.92001 1309 ft 126 kts 44°
2026-05-06 13:42 10.25475 123.92636 1148 ft 128 kts 44°
2026-05-06 13:42 10.26112 123.93252 982 ft 126 kts 42°
2026-05-06 13:42 10.26746 123.93912 867 ft 136 kts 43°
2026-05-06 13:42 10.27436 123.94565 764 ft 136 kts 41°
2026-05-06 13:43 10.28116 123.95260 601 ft 139 kts 46°
2026-05-06 13:43 10.28770 123.95946 363 ft 136 kts 43°
2026-05-06 13:43 10.29433 123.96620 141 ft 132 kts 42°
2026-05-06 13:43 10.30058 123.97238 37 ft 117 kts 43°
2026-05-06 13:44 10.30497 123.97684 32 ft 48 kts 45°
2026-05-06 13:44 10.30571 123.97759 32 ft 4 kts 44°
2026-05-06 13:44 10.30633 123.97820 33 ft 20 kts 43°
2026-05-06 13:44 10.30733 123.97920 33 ft 20 kts 49°
2026-05-06 13:45 10.30832 123.98019 33 ft 20 kts 43°
2026-05-06 13:45 10.31094 123.98267 36 ft 27 kts 32°
2026-05-06 13:45 10.31260 123.98340 38 ft 25 kts 17°
2026-05-06 13:46 10.31395 123.98318 37 ft 19 kts 314°
2026-05-06 13:46 10.31481 123.98228 37 ft 17 kts 314°
2026-05-06 13:46 10.31562 123.98142 37 ft 12 kts 308°
2026-05-06 13:46 10.31560 123.98091 37 ft 7 kts 245°
2026-05-06 13:47 10.31574 123.98051 35 ft 6 kts 311°
2026-05-06 13:47 10.31601 123.98021 37 ft 0 kts 315°